Santander Airport, Spain

2:41 PM CET on December 16, 2017 (GMT +0100)
Santander Airport

Weather History for LEXJ - January, 2009

Change the Weather History Date:

Friday, January 23, 2009

  Actual Average Record
Temperature  
Mean Temperature 55 °F -  
Max Temperature 62 °F 52 °F 66 °F (2001)
Min Temperature 48 °F 41 °F 32 °F (1998)
Degree Days  
Heating Degree Days 10    
Growing Degree Days 5 (Base 50)    
Moisture  
Dew Point 51 °F    
Average Humidity 86    
Maximum Humidity 100    
Minimum Humidity 68    
Precipitation  
Precipitation 0.00 in - - ()
Sea Level Pressure  
Sea Level Pressure 29.42 in    
Wind  
Wind Speed 11 mph ()    
Max Wind Speed 33 mph    
Max Gust Speed 45 mph    
Visibility 4.7 miles    
Events Fog , Rain    
Averages and records for this station are not official NWS values.
T = Trace of Precipitation, MM = Missing Value Source: Averaged Metar Reports

Daily Weather History Graph

Daily Weather History Graph

Search for Another Location

Airport or City:

Trip Planner

Search our weather history database for the weather conditions in past years. The results will help you decide how hot, cold, wet, or windy it might be!

Date:

Astronomy

Jan. 23, 2009 Rise Set
Actual Time 8:39 AM CET 6:14 PM CET
Civil Twilight 8:08 AM CET 6:46 PM CET
Nautical Twilight 7:33 AM CET 7:20 PM CET
Astronomical Twilight 7:00 AM CET 7:54 PM CET
Moon 6:58 AM CET (1/23) 3:27 PM CET (1/23)
Length of Visible Light 10h 37m
Length of Day
9h 35m
Waning Crescent, 7% of the Moon is Illuminated
Jan 23
Waning Crescent
Jan 26
New
Feb 3
First Quarter
Feb 9
Full
Feb 16
Last Quarter

Hourly Weather History & Observations

Time (CET) Temp. Dew Point Humidity Pressure Visibility Wind Dir Wind Speed Gust Speed Precip Events Conditions
5:30 AM 59.0 °F 51.8 °F 77% 29.42 in 6.2 mi SSW 6.9 mph - N/A   Mostly Cloudy
6:00 AM 59.0 °F 51.8 °F 77% 29.42 in 6.2 mi WSW 6.9 mph - N/A   Scattered Clouds
6:30 AM 60.8 °F 51.8 °F 72% 29.42 in 6.2 mi SW 9.2 mph - N/A   Scattered Clouds
7:00 AM 60.8 °F 51.8 °F 72% 29.42 in 6.2 mi WSW 9.2 mph - N/A   Mostly Cloudy
7:30 AM 60.8 °F 51.8 °F 72% 29.42 in 6.2 mi WSW 8.1 mph - N/A   Scattered Clouds
8:00 AM 62.6 °F 51.8 °F 68% 29.42 in 6.2 mi WSW 10.4 mph 21.9 mph N/A   Scattered Clouds
8:30 AM 62.6 °F 51.8 °F 68% 29.42 in 6.2 mi West 15.0 mph - N/A   Mostly Cloudy
9:00 AM 60.8 °F 51.8 °F 72% 29.44 in 6.2 mi WSW 11.5 mph - N/A   Mostly Cloudy
9:30 AM 62.6 °F 51.8 °F 68% 29.47 in 6.2 mi West 33.4 mph 44.9 mph N/A Rain Light Rain
10:00 AM 60.8 °F 51.8 °F 72% 29.50 in 6.2 mi West 17.3 mph 42.6 mph N/A   Mostly Cloudy
10:30 AM 60.8 °F 51.8 °F 72% 29.50 in 6.2 mi West 26.5 mph 39.1 mph N/A   Mostly Cloudy
11:30 AM 60.8 °F 53.6 °F 77% 29.53 in 6.2 mi West 29.9 mph 43.7 mph N/A   Mostly Cloudy
12:00 PM 59.0 °F 53.6 °F 82% 29.56 in 6.2 mi West 23.0 mph 35.7 mph N/A   Mostly Cloudy
12:30 PM 57.2 °F 53.6 °F 88% 29.56 in 6.2 mi WNW 28.8 mph 41.4 mph N/A   Mostly Cloudy
1:00 PM 57.2 °F 53.6 °F 88% 29.56 in 6.2 mi WNW 29.9 mph 44.9 mph N/A   Mostly Cloudy
1:30 PM 55.4 °F 53.6 °F 94% 29.56 in 6.2 mi WNW 27.6 mph 41.4 mph N/A Rain Light Rain
2:00 PM 55.4 °F 53.6 °F 94% 29.56 in 6.2 mi West 23.0 mph - N/A Rain Light Rain
2:30 PM 55.4 °F 53.6 °F 94% 29.56 in 4.3 mi West 23.0 mph 35.7 mph N/A Rain Light Rain
3:30 PM 55.4 °F 53.6 °F 94% 29.56 in 2.5 mi West 15.0 mph - N/A Rain Light Rain Showers
4:00 PM 55.4 °F 51.8 °F 88% 29.56 in 3.7 mi WNW 13.8 mph - N/A Rain Light Rain
4:30 PM 55.4 °F 53.6 °F 94% 29.56 in 3.1 mi West 10.4 mph - N/A Rain Light Rain
5:00 PM 53.6 °F 51.8 °F 94% 29.53 in 2.5 mi West 8.1 mph - N/A Rain Light Rain
5:30 PM 53.6 °F 51.8 °F 94% 29.50 in 3.1 mi SSW 4.6 mph - N/A Rain Light Rain
6:00 PM 53.6 °F 51.8 °F 94% 29.50 in 3.1 mi Variable 2.3 mph - N/A Rain Light Rain
6:30 PM 51.8 °F 50.0 °F 94% 29.44 in 3.7 mi ENE 3.5 mph - N/A Rain Light Rain
7:00 PM 51.8 °F 50.0 °F 94% 29.42 in 3.7 mi ESE 5.8 mph - N/A Rain Light Rain
7:30 PM 51.8 °F 50.0 °F 94% 29.36 in 5.6 mi East 8.1 mph - N/A   Mostly Cloudy
8:00 PM 51.8 °F 50.0 °F 94% 29.33 in 3.7 mi ENE 8.1 mph - N/A   Scattered Clouds
8:30 PM 50.0 °F 50.0 °F 100% 29.27 in 4.3 mi NE 8.1 mph - N/A   Scattered Clouds
9:00 PM 50.0 °F 48.2 °F 94% 29.24 in 4.3 mi NNE 3.5 mph - N/A   Partly Cloudy
9:30 PM 48.2 °F 46.4 °F 93% 29.21 in 3.7 mi WSW 2.3 mph - N/A   Unknown
10:00 PM 48.2 °F 46.4 °F 93% 29.15 in 3.7 mi Variable 2.3 mph - N/A   Unknown
10:30 PM 48.2 °F 46.4 °F 93% 29.15 in 2.5 mi West 6.9 mph - N/A   Partly Cloudy
10:49 PM 48.2 °F 48.2 °F 100% 29.12 in 0.6 mi ESE 1.2 mph - N/A Fog Patches of Fog
11:00 PM 48.2 °F 46.4 °F 93% 29.09 in 0.3 mi Calm Calm - N/A Fog Patches of Fog